Time,TemperatureF,DewpointF,PressureIn,WindDirection,WindDirectionDegrees,WindSpeedMPH,WindSpeedGustMPH,Humidity,HourlyPrecipIn,Conditions,Clouds,dailyrainin,SoftwareType,DateUTC
2013-07-27 00:02:00,70.0,64.0,29.98,SW,220,2.0,6.0,82,0.00,,,0.01,,2013-07-27 04:02:00,
2013-07-27 00:12:00,70.0,64.0,29.98,SW,220,2.0,6.0,82,0.00,,,0.01,,2013-07-27 04:12:00,
2013-07-27 00:22:00,70.0,64.0,29.98,SW,216,1.0,6.0,82,0.00,,,0.01,,2013-07-27 04:22:00,
2013-07-27 00:32:00,69.0,64.0,29.98,South,180,3.0,7.0,84,0.00,,,0.01,,2013-07-27 04:32:00,
2013-07-27 00:43:00,69.0,64.0,29.98,SW,226,3.0,10.0,85,0.00,,,0.01,,2013-07-27 04:43:00,
2013-07-27 00:53:00,69.0,64.0,29.98,SW,226,3.0,10.0,85,0.00,,,0.01,,2013-07-27 04:53:00,
2013-07-27 01:02:00,69.0,65.0,29.98,SW,219,0.0,8.0,86,0.00,,,0.01,,2013-07-27 05:02:00,
2013-07-27 01:12:00,69.0,65.0,29.98,WSW,243,2.0,6.0,87,0.00,,,0.01,,2013-07-27 05:12:00,
2013-07-27 01:32:00,68.0,64.0,29.98,West,274,3.0,9.0,87,0.00,,,0.00,,2013-07-27 05:32:00,
2013-07-27 01:43:00,68.0,64.0,29.98,SW,227,1.0,7.0,87,0.00,,,0.00,,2013-07-27 05:43:00,
2013-07-27 01:52:00,68.0,64.0,29.98,SW,236,3.0,7.0,87,0.00,,,0.00,,2013-07-27 05:52:00,
2013-07-27 02:02:00,68.0,64.0,29.98,West,271,2.0,9.0,86,0.00,,,0.00,,2013-07-27 06:02:00,
2013-07-27 02:33:00,68.0,64.0,29.98,SW,229,1.0,8.0,86,0.00,,,0.00,,2013-07-27 06:33:00,
2013-07-27 03:02:00,67.0,63.0,29.97,WSW,238,1.0,6.0,88,0.00,,,0.00,,2013-07-27 07:02:00,
2013-07-27 03:34:00,67.0,64.0,29.97,WSW,242,1.0,6.0,89,0.00,,,0.00,,2013-07-27 07:34:00,
2013-07-27 03:44:00,67.0,64.0,29.97,West,268,1.0,6.0,89,0.00,,,0.00,,2013-07-27 07:44:00,
2013-07-27 03:52:00,67.0,64.0,29.96,West,261,1.0,5.0,89,0.00,,,0.00,,2013-07-27 07:52:00,
2013-07-27 04:02:00,67.0,64.0,29.97,WSW,254,2.0,5.0,89,0.00,,,0.00,,2013-07-27 08:02:00,
2013-07-27 04:32:00,67.0,63.0,29.96,WSW,251,1.0,7.0,86,0.00,,,0.00,,2013-07-27 08:32:00,
2013-07-27 04:43:00,67.0,63.0,29.96,WSW,252,0.0,5.0,86,0.00,,,0.00,,2013-07-27 08:43:00,
2013-07-27 04:53:00,67.0,63.0,29.96,WSW,247,0.0,3.0,86,0.00,,,0.00,,2013-07-27 08:53:00,
2013-07-27 05:02:00,67.0,63.0,29.96,SW,228,0.0,4.0,86,0.00,,,0.00,,2013-07-27 09:02:00,
2013-07-27 05:33:00,67.0,63.0,29.97,SW,223,1.0,5.0,87,0.00,,,0.00,,2013-07-27 09:33:00,
2013-07-27 05:52:00,67.0,63.0,29.97,WSW,245,1.0,4.0,88,0.00,,,0.00,,2013-07-27 09:52:00,
2013-07-27 06:12:00,67.0,63.0,29.97,SW,230,1.0,8.0,88,0.00,,,0.00,,2013-07-27 10:12:00,
2013-07-27 06:32:00,66.0,63.0,29.97,South,190,0.0,4.0,89,0.00,,,0.00,,2013-07-27 10:32:00,
2013-07-27 07:02:00,67.0,64.0,29.97,West,259,2.0,6.0,89,0.00,,,0.00,,2013-07-27 11:02:00,
2013-07-27 07:44:00,70.0,65.0,29.97,WSW,246,0.0,6.0,85,0.00,,,0.00,,2013-07-27 11:44:00,
2013-07-27 07:52:00,70.0,65.0,29.97,WSW,246,0.0,6.0,85,0.00,,,0.00,,2013-07-27 11:52:00,
2013-07-27 08:03:00,70.0,65.0,29.97,SW,231,1.0,7.0,83,0.00,,,0.00,,2013-07-27 12:03:00,
2013-07-27 08:43:00,74.0,65.0,29.97,SW,220,2.0,6.0,74,0.00,,,0.00,,2013-07-27 12:43:00,
2013-07-27 08:52:00,74.0,65.0,29.97,SW,220,2.0,6.0,74,0.00,,,0.00,,2013-07-27 12:52:00,
2013-07-27 09:02:00,74.0,65.0,29.97,SSW,211,1.0,5.0,73,0.00,,,0.00,,2013-07-27 13:02:00,
2013-07-27 09:12:00,75.0,65.0,29.97,SSW,200,1.0,7.0,71,0.00,,,0.00,,2013-07-27 13:12:00,
2013-07-27 09:22:00,75.0,64.0,29.97,SSW,203,1.0,7.0,69,0.00,,,0.00,,2013-07-27 13:22:00,
2013-07-27 09:32:00,76.0,64.0,29.98,WSW,247,1.0,8.0,66,0.00,,,0.00,,2013-07-27 13:32:00,
2013-07-27 09:44:00,78.0,64.0,29.98,SSW,197,1.0,7.0,63,0.00,,,0.00,,2013-07-27 13:44:00,
2013-07-27 10:02:00,78.0,64.0,29.98,SSW,205,1.0,8.0,62,0.00,,,0.00,,2013-07-27 14:02:00,
2013-07-27 10:32:00,78.0,62.0,29.98,SE,136,3.0,8.0,59,0.00,,,0.00,,2013-07-27 14:32:00,
2013-07-27 10:54:00,78.0,67.0,29.98,ESE,106,2.0,10.0,68,0.00,,,0.00,,2013-07-27 14:54:00,
2013-07-27 11:02:00,80.0,67.0,29.98,ESE,105,0.0,7.0,64,0.00,,,0.00,,2013-07-27 15:02:00,
2013-07-27 11:12:00,79.0,66.0,29.98,SE,131,5.0,11.0,64,0.00,,,0.00,,2013-07-27 15:12:00,
2013-07-27 11:22:00,79.0,66.0,29.98,SE,131,5.0,11.0,64,0.00,,,0.00,,2013-07-27 15:22:00,
2013-07-27 11:33:00,80.0,67.0,29.98,SSE,163,4.0,9.0,64,0.00,,,0.00,,2013-07-27 15:33:00,
2013-07-27 11:44:00,80.0,66.0,29.99,SE,134,3.0,9.0,62,0.00,,,0.00,,2013-07-27 15:44:00,
2013-07-27 11:53:00,80.0,66.0,29.99,SE,134,3.0,9.0,62,0.00,,,0.00,,2013-07-27 15:53:00,
2013-07-27 12:02:00,79.0,67.0,29.98,SSE,152,2.0,12.0,66,0.00,,,0.00,,2013-07-27 16:02:00,
2013-07-27 12:23:00,77.0,66.0,29.98,SSW,194,9.0,15.0,70,0.00,,,0.00,,2013-07-27 16:23:00,
2013-07-27 12:33:00,77.0,67.0,29.98,SSE,152,4.0,12.0,71,0.00,,,0.00,,2013-07-27 16:33:00,
2013-07-27 12:43:00,78.0,69.0,29.98,SSE,150,1.0,16.0,73,0.00,,,0.00,,2013-07-27 16:43:00,
2013-07-27 12:53:00,78.0,69.0,29.98,SSE,150,1.0,16.0,73,0.00,,,0.00,,2013-07-27 16:53:00,
2013-07-27 13:02:00,76.0,68.0,29.98,East,94,5.0,13.0,77,0.00,,,0.00,,2013-07-27 17:02:00,
2013-07-27 13:13:00,77.0,68.0,29.98,SE,131,7.0,11.0,73,0.00,,,0.00,,2013-07-27 17:13:00,
2013-07-27 13:23:00,78.0,67.0,29.97,SSE,148,2.0,11.0,70,0.00,,,0.00,,2013-07-27 17:23:00,
2013-07-27 13:32:00,77.0,68.0,29.97,SE,129,6.0,16.0,73,0.00,,,0.00,,2013-07-27 17:32:00,
2013-07-27 13:43:00,77.0,68.0,29.97,SSE,161,7.0,16.0,73,0.00,,,0.00,,2013-07-27 17:43:00,
2013-07-27 13:53:00,78.0,68.0,29.97,South,174,6.0,14.0,72,0.00,,,0.00,,2013-07-27 17:53:00,
2013-07-27 14:03:00,77.0,68.0,29.96,SE,132,9.0,16.0,73,0.00,,,0.00,,2013-07-27 18:03:00,
2013-07-27 14:22:00,77.0,68.0,29.96,SE,130,3.0,13.0,73,0.00,,,0.00,,2013-07-27 18:22:00,
2013-07-27 14:33:00,76.0,67.0,29.96,SE,142,5.0,16.0,73,0.00,,,0.00,,2013-07-27 18:33:00,
2013-07-27 14:43:00,76.0,67.0,29.96,South,187,7.0,15.0,75,0.00,,,0.00,,2013-07-27 18:43:00,
2013-07-27 14:53:00,76.0,67.0,29.96,South,187,7.0,15.0,75,0.00,,,0.00,,2013-07-27 18:53:00,
2013-07-27 15:02:00,76.0,67.0,29.95,SE,124,4.0,14.0,75,0.00,,,0.00,,2013-07-27 19:02:00,
2013-07-27 15:12:00,77.0,66.0,29.95,East,98,3.0,13.0,70,0.00,,,0.00,,2013-07-27 19:12:00,
2013-07-27 15:23:00,77.0,66.0,29.95,East,98,3.0,13.0,70,0.00,,,0.00,,2013-07-27 19:23:00,
2013-07-27 15:32:00,76.0,66.0,29.94,SE,126,5.0,17.0,72,0.00,,,0.00,,2013-07-27 19:32:00,
2013-07-27 15:43:00,77.0,66.0,29.94,SE,128,5.0,12.0,68,0.00,,,0.00,,2013-07-27 19:43:00,
2013-07-27 15:53:00,78.0,67.0,29.94,East,101,4.0,17.0,69,0.00,,,0.00,,2013-07-27 19:53:00,
2013-07-27 16:02:00,78.0,67.0,29.94,SSE,154,7.0,14.0,68,0.00,,,0.00,,2013-07-27 20:02:00,
2013-07-27 16:12:00,78.0,67.0,29.94,SSE,154,7.0,14.0,68,0.00,,,0.00,,2013-07-27 20:12:00,
2013-07-27 16:23:00,77.0,65.0,29.94,SE,137,7.0,16.0,67,0.00,,,0.00,,2013-07-27 20:23:00,
2013-07-27 16:43:00,78.0,66.0,29.93,ESE,108,1.0,12.0,67,0.00,,,0.00,,2013-07-27 20:43:00,
2013-07-27 16:52:00,77.0,65.0,29.93,ESE,107,7.0,14.0,67,0.00,,,0.00,,2013-07-27 20:52:00,
2013-07-27 17:03:00,76.0,65.0,29.91,East,92,6.0,11.0,70,0.00,,,0.00,,2013-07-27 21:03:00,
2013-07-27 17:12:00,76.0,66.0,29.91,South,185,5.0,15.0,71,0.00,,,0.00,,2013-07-27 21:12:00,
2013-07-27 17:23:00,75.0,66.0,29.91,ESE,114,7.0,14.0,74,0.00,,,0.00,,2013-07-27 21:23:00,
2013-07-27 17:33:00,75.0,67.0,29.92,ESE,105,1.0,13.0,75,0.00,,,0.00,,2013-07-27 21:33:00,
2013-07-27 17:43:00,74.0,67.0,29.92,ESE,123,5.0,16.0,78,0.00,,,0.00,,2013-07-27 21:43:00,
2013-07-27 17:52:00,73.0,67.0,29.91,ESE,111,5.0,13.0,82,0.00,,,0.00,,2013-07-27 21:52:00,
2013-07-27 18:02:00,73.0,68.0,29.91,SE,138,3.0,11.0,83,0.00,,,0.00,,2013-07-27 22:02:00,
2013-07-27 18:12:00,73.0,68.0,29.91,ESE,121,2.0,12.0,84,0.00,,,0.00,,2013-07-27 22:12:00,
2013-07-27 18:22:00,73.0,68.0,29.91,SSE,163,7.0,13.0,84,0.00,,,0.00,,2013-07-27 22:22:00,
2013-07-27 18:33:00,73.0,68.0,29.91,South,174,6.0,14.0,85,0.00,,,0.00,,2013-07-27 22:33:00,
2013-07-27 18:43:00,73.0,68.0,29.91,South,183,4.0,14.0,84,0.00,,,0.00,,2013-07-27 22:43:00,
2013-07-27 18:53:00,74.0,69.0,29.91,SE,132,3.0,13.0,85,0.00,,,0.00,,2013-07-27 22:53:00,
2013-07-27 19:02:00,74.0,69.0,29.91,SE,133,3.0,16.0,84,0.00,,,0.00,,2013-07-27 23:02:00,
2013-07-27 19:12:00,73.0,68.0,29.91,SE,128,4.0,13.0,84,0.00,,,0.00,,2013-07-27 23:12:00,
2013-07-27 19:22:00,73.0,68.0,29.91,SSW,196,8.0,15.0,84,0.00,,,0.00,,2013-07-27 23:22:00,
2013-07-27 19:32:00,74.0,69.0,29.91,South,169,4.0,13.0,84,0.00,,,0.00,,2013-07-27 23:32:00,
2013-07-27 19:44:00,73.0,68.0,29.91,SE,136,4.0,13.0,84,0.00,,,0.00,,2013-07-27 23:44:00,
2013-07-27 19:52:00,73.0,68.0,29.91,SSW,197,1.0,11.0,84,0.00,,,0.00,,2013-07-27 23:52:00,
2013-07-27 20:02:00,73.0,68.0,29.91,SE,142,3.0,13.0,85,0.00,,,0.00,,2013-07-28 00:02:00,
2013-07-27 20:12:00,72.0,68.0,29.91,SE,134,3.0,11.0,86,0.00,,,0.00,,2013-07-28 00:12:00,
2013-07-27 20:23:00,72.0,68.0,29.91,SE,134,3.0,11.0,86,0.00,,,0.00,,2013-07-28 00:23:00,
2013-07-27 20:32:00,72.0,68.0,29.91,SE,139,1.0,9.0,87,0.00,,,0.00,,2013-07-28 00:32:00,
2013-07-27 20:53:00,72.0,68.0,29.91,South,190,0.0,8.0,88,0.00,,,0.00,,2013-07-28 00:53:00,
2013-07-27 21:02:00,72.0,69.0,29.92,SSW,211,1.0,5.0,89,0.00,,,0.00,,2013-07-28 01:02:00,
2013-07-27 21:12:00,72.0,69.0,29.92,SSE,157,3.0,8.0,89,0.00,,,0.00,,2013-07-28 01:12:00,
2013-07-27 21:23:00,72.0,69.0,29.92,SSE,157,3.0,8.0,89,0.00,,,0.00,,2013-07-28 01:23:00,
2013-07-27 21:32:00,72.0,69.0,29.93,SSE,154,0.0,6.0,89,0.00,,,0.00,,2013-07-28 01:32:00,
2013-07-27 21:43:00,71.0,68.0,29.93,SSE,154,0.0,1.0,89,0.00,,,0.00,,2013-07-28 01:43:00,
2013-07-27 21:53:00,71.0,68.0,29.93,SSE,154,0.0,0.0,89,0.00,,,0.00,,2013-07-28 01:53:00,
2013-07-27 22:03:00,71.0,68.0,29.93,SSE,154,0.0,0.0,90,0.00,,,0.00,,2013-07-28 02:03:00,
2013-07-27 22:12:00,71.0,68.0,29.93,SSE,154,0.0,0.0,90,0.00,,,0.00,,2013-07-28 02:12:00,
2013-07-27 22:23:00,71.0,68.0,29.92,SSE,154,0.0,0.0,90,0.00,,,0.00,,2013-07-28 02:23:00,
2013-07-27 22:32:00,70.0,67.0,29.91,SSE,154,0.0,0.0,91,0.00,,,0.00,,2013-07-28 02:32:00,
2013-07-27 22:53:00,70.0,67.0,29.91,SSE,154,0.0,0.0,91,0.00,,,0.00,,2013-07-28 02:53:00,
2013-07-27 23:03:00,70.0,68.0,29.90,SSE,154,0.0,0.0,92,0.00,,,0.00,,2013-07-28 03:03:00,
2013-07-27 23:12:00,69.0,67.0,29.90,SSE,154,0.0,0.0,92,0.00,,,0.00,,2013-07-28 03:12:00,
2013-07-27 23:22:00,69.0,67.0,29.90,SSE,154,0.0,0.0,93,0.00,,,0.00,,2013-07-28 03:22:00,
2013-07-27 23:32:00,69.0,67.0,29.89,SSE,154,0.0,0.0,93,0.00,,,0.00,,2013-07-28 03:32:00,
2013-07-27 23:42:00,69.0,67.0,29.89,SSE,154,0.0,0.0,93,0.00,,,0.00,,2013-07-28 03:42:00,
2013-07-27 23:53:00,68.0,66.0,29.89,SSE,154,0.0,0.0,93,0.00,,,0.00,,2013-07-28 03:53:00,